Simultaneous Nadir Overpasses (SNOs) Predictions

Prediction of SNOs between METOP-B and TERRA Satellite Orbit:

Table of predicted SNOs for the next 14.0 days since TLE Epoch: 7/21/2018
Index Date (METOP-B) Time (METOP-B) Lat,Lon (METOP-B) SZA (METOP-B ) Date (TERRA) Time (TERRA) Lat,Lon (TERRA) SZA (TERRA ) Distance(km) Time Diff (sec)
1 07/22/2018 16:53:52 81.36, -25.09 64.01 07/22/2018 16:54:06 81.36, -25.25 64.00 2.69 14
2 07/22/2018 17:44:32 -81.36, 142.39 115.97 07/22/2018 17:43:33 -81.35, 142.35 116.00 0.88 59
3 07/25/2018 12:28:11 81.36, 41.21 64.58 07/25/2018 12:28:20 81.35, 41.16 64.58 0.81 9
4 07/25/2018 13:18:51 -81.36,-151.29 115.40 07/25/2018 13:17:47 -81.35,-151.23 115.42 1.13 64
5 07/28/2018 08:02:31 81.36, 107.49 65.19 07/28/2018 08:02:35 81.35, 107.55 65.20 1.08 4
6 07/28/2018 08:53:11 -81.36, -84.98 114.78 07/28/2018 08:52:02 -81.35, -84.82 114.80 2.65 69
7 07/31/2018 02:46:11 -81.35, 6.07 114.21 07/31/2018 02:47:24 -81.35, 6.26 114.16 3.22 73
8 07/31/2018 03:36:51 81.35, 173.76 65.85 07/31/2018 03:36:50 81.35, 173.93 65.86 2.83 1
9 07/31/2018 04:27:30 -81.36, -18.28 114.07 07/31/2018 04:26:17 -81.35, -18.43 114.13 2.82 73
10 08/02/2018 22:20:29 -81.35, 72.76 113.47 08/02/2018 22:21:38 -81.34, 72.64 113.45 2.26 69




NCC Satellite Simultaneous Nadir Overpasses (SNOs) Prediction Service
